TimeCDT,TemperatureF,Dew PointF,Humidity,Sea Level PressureIn,VisibilityMPH,Wind Direction,Wind SpeedMPH,Gust SpeedMPH,PrecipitationIn,Events,Conditions,WindDirDegrees,DateUTC
12:53 AM,70.0,66.0,87,30.00,10.0,Calm,Calm,-,N/A,,Clear,0,2013-06-16 05:53:00
1:53 AM,71.1,66.0,84,29.97,10.0,ESE,3.5,-,0.00,Rain,Light Rain,120,2013-06-16 06:53:00
2:53 AM,70.0,66.9,90,29.96,10.0,South,4.6,-,0.00,,Overcast,170,2013-06-16 07:53:00
3:53 AM,70.0,66.9,90,29.96,10.0,SSE,6.9,-,0.01,,Overcast,150,2013-06-16 08:53:00
4:53 AM,70.0,66.9,90,29.99,10.0,Calm,Calm,-,N/A,,Overcast,0,2013-06-16 09:53:00
5:53 AM,69.1,66.9,93,29.99,10.0,Calm,Calm,-,0.00,,Overcast,0,2013-06-16 10:53:00
6:53 AM,70.0,68.0,93,29.99,10.0,SSE,5.8,-,N/A,,Mostly Cloudy,150,2013-06-16 11:53:00
7:53 AM,71.1,66.9,87,30.01,10.0,SSE,6.9,-,N/A,,Overcast,150,2013-06-16 12:53:00
8:53 AM,73.9,66.9,79,30.01,10.0,SSW,5.8,-,N/A,,Mostly Cloudy,200,2013-06-16 13:53:00
9:53 AM,79.0,68.0,69,30.00,10.0,South,4.6,-,N/A,,Scattered Clouds,170,2013-06-16 14:53:00
10:53 AM,79.0,66.9,66,30.00,10.0,SSW,4.6,-,N/A,,Scattered Clouds,200,2013-06-16 15:53:00
11:53 AM,81.0,69.1,67,30.00,10.0,South,5.8,-,N/A,,Scattered Clouds,170,2013-06-16 16:53:00
12:53 PM,82.9,69.1,63,29.98,10.0,SW,8.1,-,N/A,,Mostly Cloudy,230,2013-06-16 17:53:00
1:53 PM,82.9,70.0,65,29.96,10.0,SSE,6.9,-,N/A,,Mostly Cloudy,150,2013-06-16 18:53:00
2:34 PM,82.4,69.8,66,30.00,10.0,Calm,Calm,-,N/A,Thunderstorm,Thunderstorm,0,2013-06-16 19:34:00
2:53 PM,81.0,72.0,74,29.96,10.0,NNE,12.7,-,N/A,Thunderstorm,Thunderstorm,30,2013-06-16 19:53:00
3:53 PM,75.9,64.9,69,29.97,10.0,ENE,5.8,-,N/A,Thunderstorm,Overcast,70,2013-06-16 20:53:00
4:13 PM,78.8,66.2,65,30.00,10.0,East,5.8,-,N/A,,Scattered Clouds,80,2013-06-16 21:13:00
4:53 PM,82.0,66.0,58,29.94,10.0,SSW,4.6,-,N/A,,Clear,200,2013-06-16 21:53:00
5:53 PM,84.0,68.0,58,29.92,10.0,East,4.6,-,N/A,,Clear,80,2013-06-16 22:53:00
6:53 PM,82.0,69.1,65,29.92,10.0,SE,8.1,-,N/A,,Clear,140,2013-06-16 23:53:00
7:53 PM,79.0,66.0,64,29.94,10.0,SE,6.9,-,N/A,,Clear,130,2013-06-17 00:53:00
8:53 PM,75.0,63.0,66,29.94,10.0,SSE,3.5,-,N/A,,Scattered Clouds,150,2013-06-17 01:53:00
9:53 PM,75.0,63.0,66,29.96,10.0,SE,9.2,-,N/A,,Scattered Clouds,130,2013-06-17 02:53:00
10:53 PM,71.1,64.0,78,29.95,10.0,South,5.8,-,N/A,,Clear,170,2013-06-17 03:53:00
11:53 PM,71.1,64.0,78,29.94,10.0,Variable,5.8,-,N/A,,Clear,0,2013-06-17 04:53:00